Decimomannu, Italy

10:00 AM CET on February 23, 2018 (GMT +0100)
Decimomannu Mil

Weather History for LIED - October, 2012

Change the Weather History Date:

Wednesday, October 17, 2012

  Actual Average Record
Temperature  
Mean Temperature 64 °F -  
Max Temperature 77 °F 69 °F 87 °F (2014)
Min Temperature 50 °F 50 °F 48 °F (2011)
Degree Days  
Heating Degree Days 2    
Growing Degree Days 14 (Base 50)    
Moisture  
Dew Point 57 °F    
Average Humidity 72    
Maximum Humidity 94    
Minimum Humidity 46    
Precipitation  
Precipitation 0.00 in 0.08 in - ()
Sea Level Pressure  
Sea Level Pressure 30.11 in    
Wind  
Wind Speed 7 mph ()    
Max Wind Speed 17 mph    
Max Gust Speed -    
Visibility 7.7 miles    
Events      
Averages and records for this station are not official NWS values.
T = Trace of Precipitation, MM = Missing Value Source: Averaged Metar Reports

Daily Weather History Graph

Daily Weather History Graph

Search for Another Location

Airport or City:

Trip Planner

Search our weather history database for the weather conditions in past years. The results will help you decide how hot, cold, wet, or windy it might be!

Date:

Astronomy

Oct. 17, 2012 Rise Set
Actual Time 7:36 AM CEST 6:41 PM CEST
Civil Twilight 7:09 AM CEST 7:09 PM CEST
Nautical Twilight 6:37 AM CEST 7:40 PM CEST
Astronomical Twilight 6:06 AM CEST 8:11 PM CEST
Moon 9:50 AM CEST (10/17) 8:04 PM CEST (10/17)
Length of Visible Light 11h 59m
Length of Day
11h 05m
Waxing Crescent, 5% of the Moon is Illuminated
Oct 17
Waxing Crescent
Oct 22
First Quarter
Oct 29
Full
Nov 7
Last Quarter
Nov 13
New

Hourly Weather History & Observations

Time (CEST) Temp. Dew Point Humidity Pressure Visibility Wind Dir Wind Speed Gust Speed Precip Events Conditions
1:55 AM 57.2 °F 55.4 °F 94% 30.12 in 6.2 mi WNW 3.5 mph - N/A   Partly Cloudy
2:00 AM 57 °F 55 °F 90% 30.13 in 9 mi WNW 3.5 mph - -   Scattered Clouds
3:55 AM 55.4 °F 51.8 °F 88% 30.12 in 6.2 mi NNE 2.3 mph - N/A   Partly Cloudy
7:55 AM 50.0 °F 46.4 °F 87% 30.12 in 6.2 mi NW 2.3 mph - N/A   Partly Cloudy
8:00 AM 51 °F 47 °F 81% 30.13 in 12 mi NW 2.3 mph - -   Scattered Clouds
8:55 AM 53.6 °F 50.0 °F 88% 30.12 in 6.2 mi North 2.3 mph - N/A   Partly Cloudy
9:55 AM 60.8 °F 55.4 °F 82% 30.12 in 6.2 mi North 1.2 mph - N/A   Partly Cloudy
10:55 AM 71.6 °F 57.2 °F 60% 30.12 in 6.2 mi SE 4.6 mph - N/A   Partly Cloudy
11:00 AM 72 °F 57 °F 49% 30.15 in 12 mi SE 4.6 mph - -   Scattered Clouds
11:55 AM 75.2 °F 57.2 °F 53% 30.12 in 6.2 mi SSE 13.8 mph - N/A   Partly Cloudy
12:55 PM 75.2 °F 59.0 °F 57% 30.12 in 6.2 mi SSE 13.8 mph - N/A   Partly Cloudy
1:55 PM 75.2 °F 59.0 °F 57% 30.09 in 6.2 mi SSE 16.1 mph - N/A   Partly Cloudy
2:00 PM 75 °F 58 °F 46% 30.12 in 16 mi SSE 16.1 mph - -   Scattered Clouds
2:55 PM 77.0 °F 59.0 °F 54% 30.09 in 6.2 mi SSE 16.1 mph - N/A   Partly Cloudy
3:55 PM 75.2 °F 60.8 °F 61% 30.09 in 6.2 mi South 17.3 mph - N/A   Partly Cloudy
4:55 PM 73.4 °F 60.8 °F 65% 30.09 in 6.2 mi SSE 16.1 mph - N/A   Partly Cloudy
5:00 PM 73 °F 60 °F 56% 30.09 in 16 mi SSE 16.1 mph - -   Scattered Clouds
5:55 PM 71.6 °F 60.8 °F 69% 30.09 in 6.2 mi SSE 15.0 mph - N/A   Partly Cloudy
7:55 PM 68.0 °F 60.8 °F 78% 30.09 in 6.2 mi SE 11.5 mph - N/A   Scattered Clouds
8:00 PM 69 °F 61 °F 68% 30.10 in 9 mi SE 11.5 mph - -   Partly Cloudy
8:55 PM 66.2 °F 60.8 °F 83% 30.09 in 6.2 mi ESE 8.1 mph - N/A   Scattered Clouds
9:55 PM 64.4 °F 59.0 °F 83% 30.09 in 6.2 mi East 6.9 mph - N/A   Partly Cloudy
10:55 PM 62.6 °F 59.0 °F 88% 30.09 in 6.2 mi ESE 6.9 mph - N/A   Partly Cloudy
11:00 PM 62 °F 59 °F 85% 30.10 in 7 mi ESE 6.9 mph - -   Scattered Clouds
11:55 PM 60.8 °F 55.4 °F 82% 30.09 in 6.2 mi East 5.8 mph - N/A   Partly Cloudy